Regional Weather Roundup
Issued by NWS

Home | Current Version | Previous Version | Graphics & Text | Print | Product List | Glossary On
Versions: 1 2 3 4 5 6 7 8 9 10 11 12 13 14 15 16 17 18 19 20 21 22 23 24 25 26 27
000
ASUS45 KBOU 240307
RWRCO

WEATHER ROUNDUP FOR COLORADO
NATIONAL WEATHER SERVICE DENVER/BOULDER CO
900 PM MDT TUE AUG 23 2016

NOTE: "FAIR" INDICATES FEW OR NO CLOUDS BELOW 12000 FEET WITH NO
SIGNIFICANT WEATHER AND/OR OBSTRUCTIONS TO VISIBILITY.

COZ001>005-013-030-031-240400-
...NORTHWEST COLORADO...

CITY           SKY/WX    TMP DP  RH WIND       PRES   REMARKS
CRAIG          MOCLDY    61  43  51 S22       30.23R
HAYDEN         FAIR      55  43  62 SE23      30.25F
MEEKER         LGT RAIN  60  45  57 SE14      30.29R
MOUNT WERNER   NOT AVBL
STEAMBOAT SPGS CLOUDY    56  46  70 CALM      30.34R
WALDEN         CLOUDY    54  34  47 W10G18    30.38R
$$

COZ006>008-011-240400-
...WEST CENTRAL VALLEYS...

CITY           SKY/WX    TMP DP  RH WIND       PRES   REMARKS
GRAND JUNCTION FAIR      72  46  39 SE16      30.14R
MONTROSE       LGT RAIN  60  50  69 SE16      30.27R
EAGLE          CLOUDY    66  43  42 W16       30.29R
RIFLE          LGT RAIN  59  53  80 SE14      30.25S
DELTA          NOT AVBL
NUCLA          MOCLDY    55  52  88 NW3       30.31S
$$

COZ017>023-064>068-240400-
...SOUTHWEST COLORADO...

CITY           SKY/WX    TMP DP  RH WIND       PRES   REMARKS
DURANGO        FAIR      54  49  83 CALM      30.28S
CORTEZ         FAIR      55  52  89 N6        30.23S
PAGOSA SPRINGS FAIR      51  49  94 CALM      30.33S
TELLURIDE      DRIZZLE   46  44  92 CALM      30.44S
WOLF CREEK PAS FAIR      36  36 100 NE3       30.58S
$$

COZ009-010-012-014-032>034-037-058>063-240400-
...CENTRAL COLORADO...

CITY           SKY/WX    TMP DP  RH WIND       PRES   REMARKS
ASPEN          LGT RAIN  52  47  83 SE14G21   30.36R
BUENA VISTA    RAIN      50  47  88 W5        30.42R
COPPER MTN     LGT RAIN  41  36  81 NE5       30.62R
BERTHOUD PASS  SNOW      32  19  59 SE16      30.64S VSB 1/4 WCI  21
COTTONWOOD PAS RAIN      46  45  93 E6        30.51R
GUNNISON       CLOUDY    52  46  82 NE6       30.40R
KREMMLING      MOCLDY    61  36  39 SW17G25   30.32R
LEADVILLE      RAIN      42  40  92 CALM      30.50R FOG
MONARCH PASS   FOG       37  36  93 NE20      30.66R VSB<1/4
SALIDA         CLOUDY    54  52  91 CALM      30.46R
SUNLIGHT       CLOUDY    43  39  87 SE8       30.56R
WILKERSON PASS RAIN      37  36  93 E7        30.59S
$$

COZ069>075-240400-
...SAN LUIS VALLEY/SANGRE DE CRISTO MOUNTAINS...

CITY           SKY/WX    TMP DP  RH WIND       PRES   REMARKS
ALAMOSA        LGT RAIN  52  50  93 E13       30.34R
LA VETA PASS   RAIN      45  43  93 SW12G23   30.45F
SAGUACHE       CLOUDY    55  45  67 N7        30.35R
$$

COZ035-036-038>040-240400-
...NORTHERN COLORADO FRONT RANGE...

CITY           SKY/WX    TMP DP  RH WIND       PRES   REMARKS
DENVER INTL AP CLOUDY    72  40  31 SW10      30.16R
DMNS CITY PARK   N/A     70  40  33 W12G17    30.17R
AURORA         MOCLDY    68  43  40 SW14      30.19R
FRONT RANGE AP NOT AVBL
ERIE MUNI ARPT LGT RAIN  72  38  29 W16G24    30.14F
BOULDER MUN AP CLOUDY    70  41  35 W24G38    30.17S
CENTENNIAL     CLOUDY    67  41  38 W10       30.20R
BROOMFIELD     MOCLDY    72  39  30 W16G23    30.17F
FORT COLLINS   FAIR      70  43  37 SW7       30.15R
LONGMONT       LGT RAIN  73  42  33 W22G31    30.17S
$$

COZ041-046-047-076>085-087-088-240400-
...PIKES PEAK/PALMER DIVIDE AND SOUTHERN FOOTHILLS...

CITY           SKY/WX    TMP DP  RH WIND       PRES   REMARKS
COLO. SPRINGS  CLOUDY    68  40  35 W14       30.20R
A. F. ACADEMY  FAIR      66  38  35 NW10      30.22F
SCHRIEVER AFB  NOT AVBL
ELLICOTT       NOT AVBL
FALCON         CLOUDY    65  39  38 NW7       30.25R
FORT CARSON    NOT AVBL
LIMON          FAIR      72  37  28 NW14      30.15R
MONUMENT HILL  CLOUDY    61  41  48 W7        30.29S
TRINIDAD       LGT RAIN  66  49  54 NW17      30.18R
$$

COZ042>045-048>051-090-091-240400-
...NORTHEAST COLORADO...

CITY           SKY/WX    TMP DP  RH WIND       PRES   REMARKS
GREELEY ARPT   FAIR      73  43  33 SW15G25   30.13R
AKRON          FAIR      70  30  22 NE8       30.08R
BURLINGTON     FAIR      70  30  22 NE8       30.04R
WRAY           NOT AVBL
STERLING       FAIR      70  45  40 N3        30.03R
HOLYOKE        FAIR      66  43  42 NE7       30.03R
FORT MORGAN    FAIR      72  33  23 N5        30.10R
$$

COZ086-089-092>099-240400-
...SOUTHEAST COLORADO...

CITY           SKY/WX    TMP DP  RH WIND       PRES   REMARKS
PUEBLO         LGT RAIN  68  53  58 W32G46    30.12R
LA JUNTA       FAIR      84  35  17 NW12      30.03R
LAMAR          FAIR      77  49  37 SE5       29.94R
SPRINGFIELD      N/A     72  54  53 SE6       30.00R
$$




USA.gov is the U.S. government's official web portal to all federal, state and local government web resources and services.